Gainesville, FL

2:23 PM EDT on March 23, 2017 (GMT -0400)
Gainesville Regional

Weather History for KGNV - March, 2014

Change the Weather History Date:

Thursday, March 13, 2014

  Actual Average Record
Temperature  
Mean Temperature 53 °F 62 °F  
Max Temperature 64 °F 74 °F 88 °F (1907)
Min Temperature 42 °F 50 °F 29 °F (1996)
Degree Days  
Heating Degree Days 12 5  
Month to date heating degree days 73  
Since 1 July heating degree days 1107  
Cooling Degree Days 0 2  
Month to date cooling degree days 20  
Year to date cooling degree days 52  
Growing Degree Days 3 (Base 50)    
Moisture  
Dew Point 34 °F    
Average Humidity 50    
Maximum Humidity 90    
Minimum Humidity 22    
Precipitation  
Precipitation 0.00 in 0.14 in 0.96 in (1993)
Month to date precipitation 1.93  
Year to date precipitation 8.44  
Snow  
Snow 0.00 in 0.00 in 0.00 in ()
Month to date snowfall 0.0  
Since 1 July snowfall 0.0  
Snow Depth -    
Sea Level Pressure  
Sea Level Pressure 30.08 in    
Wind  
Wind Speed 11 mph (NNW)    
Max Wind Speed 16 mph    
Max Gust Speed 26 mph    
Visibility 10 miles    
Events      
T = Trace of Precipitation, MM = Missing Value Source: NWS Daily Summary

Daily Weather History Graph

Daily Weather History Graph

Search for Another Location

Airport or City:

Trip Planner

Search our weather history database for the weather conditions in past years. The results will help you decide how hot, cold, wet, or windy it might be!

Date:

Astronomy

Mar. 13, 2014 Rise Set
Actual Time 7:41 AM EDT 7:36 PM EDT
Civil Twilight 7:17 AM EDT 8:00 PM EDT
Nautical Twilight 6:49 AM EDT 8:27 PM EDT
Astronomical Twilight 6:22 AM EDT 8:55 PM EDT
Moon 5:09 PM EDT (3/13) 5:37 AM EDT (3/13)
Length of Visible Light 12h 42m
Length of Day
11h 54m
Waxing Gibbous, 91% of the Moon is Illuminated
Mar 13
Waxing Gibbous
Mar 16
Full
Mar 23
Last Quarter
Mar 30
New
Apr 7
First Quarter

Hourly Weather History & Observations

Time (EDT) Temp. Windchill Dew Point Humidity Pressure Visibility Wind Dir Wind Speed Gust Speed Precip Events Conditions
12:34 AM 62.1 °F - 59.0 °F 90% 29.84 in 8.0 mi West 11.5 mph - N/A   Mostly Cloudy
12:53 AM 62.1 °F - 59.0 °F 90% 29.84 in 8.0 mi WNW 10.4 mph 20.7 mph N/A   Overcast
1:15 AM 62.1 °F - 55.0 °F 78% 29.86 in 10.0 mi NW 16.1 mph 24.2 mph N/A   Overcast
1:53 AM 60.1 °F - 46.9 °F 62% 29.88 in 10.0 mi NNW 15.0 mph 24.2 mph N/A   Mostly Cloudy
2:53 AM 52.0 °F - 37.9 °F 59% 29.92 in 10.0 mi NW 15.0 mph 25.3 mph N/A   Clear
3:53 AM 48.9 °F - 32.0 °F 52% 29.95 in 10.0 mi NNW 12.7 mph 26.5 mph N/A   Clear
4:53 AM 46.9 °F - 33.1 °F 59% 29.97 in 10.0 mi NNW 12.7 mph - N/A   Clear
5:53 AM 46.0 °F 41.4 °F 33.1 °F 61% 30.02 in 10.0 mi NNW 9.2 mph 16.1 mph N/A   Clear
6:53 AM 45.0 °F 40.1 °F 32.0 °F 60% 30.06 in 10.0 mi NNW 9.2 mph - N/A   Clear
7:53 AM 42.1 °F 38.4 °F 33.1 °F 70% 30.09 in 10.0 mi NW 5.8 mph - N/A   Clear
8:53 AM 46.0 °F 41.0 °F 30.9 °F 56% 30.12 in 10.0 mi NNW 10.4 mph 18.4 mph N/A   Clear
9:53 AM 48.9 °F - 28.9 °F 46% 30.15 in 10.0 mi NNW 15.0 mph 23.0 mph N/A   Clear
10:53 AM 52.0 °F - 26.1 °F 37% 30.16 in 10.0 mi North 9.2 mph - N/A   Clear
11:53 AM 55.0 °F - 25.0 °F 31% 30.16 in 10.0 mi NNW 12.7 mph - N/A   Clear
12:53 PM 57.9 °F - 27.0 °F 31% 30.14 in 10.0 mi NNW 13.8 mph 18.4 mph N/A   Clear
1:53 PM 61.0 °F - 26.1 °F 26% 30.13 in 10.0 mi North 13.8 mph 21.9 mph N/A   Clear
2:53 PM 62.1 °F - 27.0 °F 26% 30.12 in 10.0 mi WNW 8.1 mph 17.3 mph N/A   Clear
3:53 PM 64.0 °F - 26.1 °F 24% 30.10 in 10.0 mi NNW 9.2 mph - N/A   Clear
4:53 PM 64.0 °F - 25.0 °F 23% 30.10 in 10.0 mi NW 12.7 mph - N/A   Clear
5:53 PM 64.0 °F - 24.1 °F 22% 30.12 in 10.0 mi North 10.4 mph - N/A   Clear
6:53 PM 61.0 °F - 27.0 °F 27% 30.14 in 10.0 mi NNW 9.2 mph - N/A   Clear
7:53 PM 55.9 °F - 28.9 °F 36% 30.17 in 10.0 mi North 5.8 mph - N/A   Clear
8:53 PM 53.1 °F - 32.0 °F 45% 30.20 in 10.0 mi North 3.5 mph - N/A   Clear
9:53 PM 51.1 °F - 32.0 °F 48% 30.23 in 10.0 mi North 6.9 mph - N/A   Clear
10:53 PM 46.0 °F 44.8 °F 33.1 °F 61% 30.25 in 10.0 mi NNW 3.5 mph - N/A   Clear
11:53 PM 43.0 °F 39.5 °F 34.0 °F 71% 30.26 in 10.0 mi NNW 5.8 mph - N/A   Clear